Regional Weather Roundup
Issued by NWS State College, PA

Home | Current Version | Previous Version | Text Only | Print | Product List | Glossary On
Versions: 1 2 3 4 5 6 7 8 9 10 11 12 13 14 15 16 17 18 19 20 21 22 23 24 25 26 27 28 29 30 31 32 33 34 35 36 37 38 39 40 41 42 43 44 45 46 47 48 49 50
000
ASUS41 KCTP 200010
RWRCTP

REGIONAL WEATHER ROUNDUP
NATIONAL WEATHER SERVICE STATE COLLEGE PA
700 PM EST FRI DEC 19 2014

Note: "fair" indicates few or no clouds below 12,000 feet with no
significant weather and/or obstructions to visibility.

* = STATION THAT DOES NOT REPORT PRECIPITATION /E.G. RAIN...SNOW...ETC/
    THUNDER OR FOG.

PAZ002>004-007>009-013>016-020>023-029>032-200100-
WESTERN PENNSYLVANIA

CITY           SKY/WX    TMP DP  RH WIND       PRES   REMARKS
ERIE           MOCLDY    31  19  61 W7        30.26R
MEADVILLE      CLOUDY    26  19  74 NW3       30.23R
FRANKLIN*      CLOUDY    25  16  68 CALM      30.22S
NEW CASTLE       N/A     29  21  71 NW7       30.27R
BEAVER COUNTY  NOT AVBL
BUTLER*        CLOUDY    28  21  74 CALM      30.25R
PITTSBURGH INT CLOUDY    30  22  72 NW7       30.24R
PITTSBURGH     CLOUDY    30  18  60 NW6       30.23R
INDIANA*       CLOUDY    28  21  74 NW7       30.25R
LATROBE        CLOUDY    34  25  69 NW7       30.25R
WASHINGTON CO* NOT AVBL
$$

PAZ004>006-010>012-017>019-024>028-033>037-041-042-045-046-049>053-200100-
CENTRAL PENNSYLVANIA

CITY           SKY/WX    TMP DP  RH WIND       PRES   REMARKS
BRADFORD       CLOUDY    21  16  81 NW10      30.15S WCI  10
DUBOIS         PTCLDY    23  18  81 NW6       30.16S
CLEARFIELD     CLOUDY    27  17  66 W13       30.18R
JOHNSTOWN      CLOUDY    24  18  77 NW12      30.13R WCI  13
ALTOONA        MOCLDY    27  19  72 NW15      30.17S
STATE COLLEGE  NOT AVBL
WILLIAMSPORT   CLOUDY    33  20  58 NW8       30.19R
SELINSGROVE    CLOUDY    34  21  59 NW7       30.20R
FT INDIANTOWN  MOCLDY    34  20  55 VRB5      30.17S
CAPITAL CITY   FAIR      34  21  59 NW7       30.18S
HARRISBURG     FAIR      33  20  58 NW8       30.17S
YORK           CLEAR     32  21  64 NW8       30.17S
$$

PAZ038>040-043-044-047-048-054-055-060>062-067>071-200100-
EASTERN PENNSYLVANIA

CITY           SKY/WX    TMP DP  RH WIND       PRES   REMARKS
SCRANTON       CLOUDY    30  20  66 N7        30.17R
MOUNT POCONO   CLOUDY    24  18  77 NW13G26   30.08R WCI  12
ALLENTOWN      CLOUDY    33  19  56 N13       30.18R
QUAKERTOWN*    CLOUDY    32  21  64 N10G20    30.16R
READING        CLOUDY    35  21  56 N13       30.16R
LANCASTER      CLEAR     32  20  61 NW6       30.17R
COATESVILLE    CLEAR     34  23  64 NW8       30.15R
POTTSTOWN      PTCLDY    33  21  61 N8        30.17R
BLUE BELL      CLEAR     34  23  64 CALM      30.16R
DOYLESTOWN     PTCLDY    29  21  72 N7        30.16R
WILLOW GROVE   NOT AVBL
NORTH PHILA    CLEAR     33  20  58 N7        30.18R
PHILADELPHIA   CLEAR     36  21  54 N12       30.18R
$$


USA.gov is the U.S. government's official web portal to all federal, state and local government web resources and services.